TimeMST,TemperatureF,Dew PointF,Humidity,Sea Level PressureIn,VisibilityMPH,Wind Direction,Wind SpeedMPH,Gust SpeedMPH,PrecipitationIn,Events,Conditions,WindDirDegrees,DateUTC
12:53 AM,34.0,27.0,75,29.67,10.0,SW,11.5,-,N/A,,Clear,220,2014-01-09 07:53:00
1:53 AM,32.0,25.0,75,29.66,10.0,SW,9.2,-,N/A,,Clear,230,2014-01-09 08:53:00
2:53 AM,30.9,24.1,76,29.66,10.0,SW,10.4,-,N/A,,Clear,220,2014-01-09 09:53:00
3:53 AM,37.0,27.0,67,29.63,10.0,SSW,12.7,-,N/A,,Partly Cloudy,210,2014-01-09 10:53:00
4:53 AM,37.0,28.0,70,29.61,10.0,SSW,11.5,-,N/A,,Mostly Cloudy,210,2014-01-09 11:53:00
5:53 AM,34.0,26.1,73,29.57,10.0,SW,11.5,-,N/A,,Scattered Clouds,220,2014-01-09 12:53:00
6:53 AM,36.0,27.0,70,29.56,10.0,SSW,16.1,-,N/A,,Overcast,210,2014-01-09 13:53:00
7:53 AM,37.0,27.0,67,29.56,10.0,SW,15.0,-,N/A,,Overcast,220,2014-01-09 14:53:00
8:53 AM,35.1,27.0,72,29.57,10.0,SW,12.7,-,N/A,,Overcast,220,2014-01-09 15:53:00
9:53 AM,37.9,28.9,70,29.59,10.0,SW,12.7,-,N/A,,Overcast,220,2014-01-09 16:53:00
10:53 AM,37.9,30.0,73,29.59,10.0,SW,12.7,-,N/A,,Overcast,220,2014-01-09 17:53:00
11:53 AM,39.0,30.0,70,29.57,10.0,SW,15.0,-,N/A,,Mostly Cloudy,220,2014-01-09 18:53:00
12:53 PM,39.0,28.9,67,29.55,10.0,SW,13.8,-,N/A,,Clear,220,2014-01-09 19:53:00
1:53 PM,39.0,28.0,65,29.55,10.0,SW,16.1,-,N/A,,Clear,230,2014-01-09 20:53:00
2:53 PM,37.9,28.0,68,29.57,10.0,SW,18.4,-,N/A,,Scattered Clouds,220,2014-01-09 21:53:00
4:53 PM,35.1,26.1,70,29.60,10.0,SW,15.0,-,N/A,,Partly Cloudy,220,2014-01-09 23:53:00
5:53 PM,37.0,24.1,59,29.60,10.0,West,19.6,-,N/A,,Mostly Cloudy,260,2014-01-10 00:53:00
6:53 PM,37.0,24.1,59,29.60,10.0,WSW,20.7,-,N/A,,Mostly Cloudy,250,2014-01-10 01:53:00
7:53 PM,36.0,21.9,57,29.60,10.0,WSW,25.3,33.4,N/A,,Overcast,250,2014-01-10 02:53:00
8:53 PM,34.0,21.9,61,29.60,10.0,WSW,23.0,-,N/A,,Mostly Cloudy,240,2014-01-10 03:53:00
9:53 PM,32.0,21.9,66,29.60,10.0,SW,20.7,-,N/A,,Partly Cloudy,220,2014-01-10 04:53:00
10:53 PM,30.9,19.9,64,29.59,10.0,SW,23.0,-,N/A,,Clear,220,2014-01-10 05:53:00
11:53 PM,28.9,19.0,67,29.59,10.0,SW,18.4,-,N/A,,Clear,230,2014-01-10 06:53:00